Flag for Colombia Weather past 2 weeks in Barranquilla, Colombia

Now
82 °F

Passing clouds.


Feels Like: 92 °F
Forecast: 80 / 91 °F
Wind: 6 mph from Northeast

Location: Barranquilla / Ernestocortissoz

Current Time: Sep 4, 2015 at 12:59:00 AM

Latest Report: Sep 4, 2015 at 12:00 AM


Visibility: N/A

Pressure: 29.86 "Hg

Humidity: 89%

Dew point: 79 °F

Location of BarranquillaLocation

Historic Weather in Barranquilla — Graph

°F

Barranquilla temperature yesterday

Maximum temperature yesterday: 97 °F (at 12:00 PM)
Minimum temperature yesterday: 79 °F (at 5:00 AM)
Average temperature yesterday: 85 °F

Past Weeks' High & Low Weather Summary

 TemperatureHumidityPressure
High102 °F (Aug 29, 1:00 PM)100% (Aug 21, 6:00 AM)29.93 "Hg (Aug 21, 6:00 AM)
Low77 °F (Aug 24, 6:00 AM)40% (Aug 29, 1:00 PM)29.72 "Hg (Aug 20, 5:00 PM)
Average85 °F81%29.81 "Hg
* Reported Aug 19 11:00 PM — Sep 3 11:00 PM, Barranquilla, Weather by CustomWeather, © 2015

Note: Actual official high and low records may vary slightly from our data, if they occured in-between our weather recording intervals... More about our weather records

Advertising

Barranquilla weather history for previous 24 hours

 ConditionsComfort  
Time TempWeatherWind HumidityBarometerVisibility
11:00 PM
Thu, Sep 3
82 °FPassing clouds.5 mph89%29.87 "HgN/A
10:00 PM82 °FWarm.6 mph89%29.86 "HgN/A
9:00 PM82 °FPassing clouds.6 mph89%29.84 "HgN/A
8:00 PM84 °FPartly cloudy.5 mph84%29.84 "HgN/A
7:00 PM84 °FPartly cloudy.3 mph84%29.81 "HgN/A
6:00 PM86 °FScattered showers. Scattered clouds.7 mph84%29.81 "Hg5 mi
5:00 PM86 °FScattered showers. Scattered clouds.9 mph79%29.79 "Hg5 mi
4:00 PM86 °FScattered clouds.6 mph66%29.79 "HgN/A
3:00 PM86 °FScattered clouds.12 mph75%29.79 "HgN/A
2:00 PM90 °FScattered showers. Scattered clouds.3 mph75%29.80 "Hg5 mi
1:00 PM97 °FScattered clouds.5 mph53%29.80 "HgN/A
12:00 PM97 °FScattered clouds.14 mph53%29.82 "HgN/A
11:00 AM93 °FScattered clouds.5 mph63%29.85 "HgN/A
10:00 AM90 °FScattered clouds.3 mph71%29.85 "HgN/A
9:00 AM86 °FScattered clouds.8 mph79%29.86 "HgN/A
8:00 AM84 °FPartly sunny.107 mph89%29.85 "HgN/A
7:00 AM81 °FFog.5 mph94%29.84 "Hg2 mi
6:00 AM81 °FFog.6 mph94%29.81 "Hg2 mi
5:00 AM79 °FPassing clouds.6 mph100%29.79 "HgN/A
4:00 AM81 °FPassing clouds.6 mph94%29.79 "HgN/A
3:55 AM81 °FPassing clouds.6 mph94%29.79 "HgN/A
3:00 AM82 °FClear.5 mph89%29.78 "Hg10 mi
2:00 AM82 °FPassing clouds.7 mph89%29.79 "HgN/A
1:00 AM82 °FPassing clouds.12 mph94%29.82 "HgN/A
12:00 AM82 °FPassing clouds.12 mph89%29.83 "HgN/A
Weather by CustomWeather, © 2015

See weather overviewHow to use our weather pages